カタログに戻る

FENGYUN 1C DEB

運用中PO
NORAD 31823·DEBRIS·🇨🇳 China

打ち上げ May 10, 1999 から Taiyuan Satellite Launch Center

Loading…

次のパス (今後24時間)

TLE

最新Source: Space-Track

元期: Sep 14, 2026, 04:15 UTC

1 31823U 99025CHM 26257.17737860  .00005110  00000-0  82935-3 0  9990
2 31823  99.5182  33.0649 0036745 100.0210 260.5141 14.71275447  7599

AllMySatでFENGYUN 1C DEBをリアルタイム追跡

Download on the App Store